Change the Weather History Date:

Monday, May 20, 2013

  Actual Average Record
Temperature  
Mean Temperature 84 °F -  
Max Temperature 90 °F 87 °F 91 °F (1998)
Min Temperature 78 °F 78 °F 76 °F (2014)
Cooling Degree Days 19    
Growing Degree Days 34 (Base 50)    
Moisture  
Dew Point 73 °F    
Average Humidity 71    
Maximum Humidity 84    
Minimum Humidity 55    
Precipitation  
Precipitation 0.01 in - - ()
Sea Level Pressure  
Sea Level Pressure 29.93 in    
Wind  
Wind Speed 10 mph ()    
Max Wind Speed 24 mph    
Max Gust Speed -    
Visibility 7.8 miles    
Events Rain , Thunderstorm    
Averages and records for this station are not official NWS values.
T = Trace of Precipitation, MM = Missing Value Source: Averaged Metar Reports

Daily Weather History Graph

Daily Weather History Graph

Search for Another Location

Airport or City:

Trip Planner

Search our weather history database for the weather conditions in past years. The results will help you decide how hot, cold, wet, or windy it might be!

Date:

Astronomy

May. 20, 2013 Rise Set
Actual Time 5:32 AM EST 6:34 PM EST
Civil Twilight 5:09 AM EST 6:58 PM EST
Nautical Twilight 4:41 AM EST 7:26 PM EST
Astronomical Twilight 4:13 AM EST 7:54 PM EST
Moon 2:17 PM EST (5/20) 1:44 AM EST (5/20)
Length of Visible Light 13h 49m
Length of Day
13h 02m
Waxing Gibbous, 75% of the Moon is Illuminated
May 20
Waxing Gibbous
May 24
Full
May 31
Last Quarter
Jun 8
New
Jun 16
First Quarter

Hourly Weather History & Observations

Time (EST) Temp. Heat Index Dew Point Humidity Pressure Visibility Wind Dir Wind Speed Gust Speed Precip Events Conditions
12:00 AM 80.6 °F 85.4 °F 73.4 °F 79% 29.95 in 6.2 mi North 6.9 mph - N/A   Partly Cloudy
1:00 AM 80 °F - 75 °F 81% 29.94 in 12 mi North 10.4 mph - -   Haze
1:00 AM 80.6 °F 86.2 °F 75.2 °F 84% 29.92 in 6.2 mi North 10.4 mph - N/A   Partly Cloudy
2:00 AM 80.6 °F 85.4 °F 73.4 °F 79% 29.92 in 6.2 mi NNE 5.8 mph - N/A   Partly Cloudy
3:00 AM 80.6 °F 85.4 °F 73.4 °F 79% 29.89 in 6.2 mi NNW 3.5 mph - N/A Thunderstorm Partly Cloudy
4:00 AM 80 °F - 72 °F 70% 29.92 in 12 mi NE 5.8 mph - -   Haze
4:00 AM 80.6 °F 84.6 °F 71.6 °F 74% 29.92 in 6.2 mi NE 5.8 mph - N/A   Partly Cloudy
5:00 AM 80.6 °F 84.6 °F 71.6 °F 74% 29.92 in 6.2 mi NNW 4.6 mph - N/A   Partly Cloudy
6:00 AM 80.6 °F 84.6 °F 71.6 °F 74% 29.92 in 6.2 mi North 9.2 mph - N/A   Partly Cloudy
7:00 AM 81 °F - 72 °F 68% 29.95 in 12 mi North 9.2 mph - -   Haze
7:00 AM 80.6 °F 84.6 °F 71.6 °F 74% 29.95 in 6.2 mi North 9.2 mph - N/A   Partly Cloudy
8:00 AM 82.4 °F 87.2 °F 71.6 °F 70% 29.95 in 6.2 mi NNW 5.8 mph - N/A   Partly Cloudy
9:00 AM 86.0 °F 95.1 °F 75.2 °F 70% 29.95 in 6.2 mi East 8.1 mph - N/A   Partly Cloudy
10:00 AM 88 °F - 75 °F 58% 29.96 in 16 mi SE 21.9 mph - -   Haze
10:00 AM 87.8 °F 97.6 °F 75.2 °F 66% 29.95 in 6.2 mi SE 21.9 mph - N/A   Partly Cloudy
11:00 AM 87.8 °F 97.6 °F 75.2 °F 66% 29.95 in 6.2 mi SSE 20.7 mph - N/A   Partly Cloudy
12:00 PM 87.8 °F 99.7 °F 77.0 °F 70% 29.95 in 6.2 mi SSE 24.2 mph - N/A   Partly Cloudy
12:36 PM 84.2 °F 90.9 °F 73.4 °F 70% 29.95 in 6.2 mi ESE 19.6 mph - N/A Thunderstorm Thunderstorm
1:00 PM 87 °F - 73 °F 55% 29.95 in 14 mi ESE 17.3 mph - - Thunderstorm Thunderstorm
1:00 PM 86.0 °F 93.4 °F 73.4 °F 66% 29.95 in 6.2 mi ESE 17.3 mph - N/A Thunderstorm Thunderstorm
2:00 PM 87.8 °F 99.7 °F 77.0 °F 70% 29.89 in 6.2 mi SE 19.6 mph - N/A   Scattered Clouds
3:00 PM 84.2 °F 92.3 °F 75.2 °F 74% 29.89 in 6.2 mi SSE 18.4 mph - N/A Rain Light Rain Showers
4:00 PM 82 °F - 73 °F 67% 29.90 in 12 mi ESE 16.1 mph - - Rain Light Rain Showers
4:00 PM 82.4 °F 88.2 °F 73.4 °F 74% 29.89 in 6.2 mi ESE 16.1 mph - N/A   Mostly Cloudy
5:00 PM 84.2 °F 89.6 °F 71.6 °F 66% 29.89 in 6.2 mi ESE 11.5 mph - N/A   Mostly Cloudy
6:00 PM 84.2 °F 90.9 °F 73.4 °F 70% 29.89 in 6.2 mi SE 13.8 mph - N/A   Mostly Cloudy
7:00 PM 85 °F - 73 °F 60% 29.89 in 12 mi ESE 11.5 mph - -   Haze
7:00 PM 84.2 °F 90.9 °F 73.4 °F 70% 29.89 in 6.2 mi ESE 11.5 mph - N/A   Scattered Clouds
8:00 PM 82.4 °F 88.2 °F 73.4 °F 74% 29.92 in 6.2 mi NE 5.8 mph - N/A   Partly Cloudy
9:00 PM 82.4 °F 88.2 °F 73.4 °F 74% 29.95 in 6.2 mi North 4.6 mph - N/A   Scattered Clouds
10:00 PM 195 °F - - %  in 12 mi East 5.8 mph - -  
10:00 PM 82.4 °F 88.2 °F 73.4 °F 74% 29.95 in 6.2 mi East 5.8 mph - N/A   Partly Cloudy
11:00 PM 80.6 °F 84.6 °F 71.6 °F 74% 29.95 in 6.2 mi North 4.6 mph - N/A   Partly Cloudy